TimeEDT,TemperatureF,Dew PointF,Humidity,Sea Level PressureIn,VisibilityMPH,Wind Direction,Wind SpeedMPH,Gust SpeedMPH,PrecipitationIn,Events,Conditions,WindDirDegrees,DateUTC
12:15 AM,41.0,32.0,70,29.81,10.0,Calm,Calm,-,N/A,,Clear,0,2013-03-24 04:15:00
12:35 AM,41.0,32.0,70,29.81,10.0,Calm,Calm,-,N/A,,Clear,0,2013-03-24 04:35:00
12:55 AM,41.0,32.0,70,29.80,10.0,Calm,Calm,-,N/A,,Clear,0,2013-03-24 04:55:00
1:15 AM,41.0,32.0,70,29.79,10.0,Calm,Calm,-,N/A,,Clear,0,2013-03-24 05:15:00
1:35 AM,41.0,32.0,70,29.79,10.0,Calm,Calm,-,N/A,,Clear,0,2013-03-24 05:35:00
1:55 AM,41.0,32.0,70,29.81,10.0,Calm,Calm,-,N/A,,Mostly Cloudy,0,2013-03-24 05:55:00
2:15 AM,41.0,32.0,70,29.81,10.0,Calm,Calm,-,N/A,,Overcast,0,2013-03-24 06:15:00
2:35 AM,42.8,32.0,66,29.81,10.0,SSE,5.8,-,N/A,,Overcast,150,2013-03-24 06:35:00
2:55 AM,42.8,32.0,66,29.81,10.0,South,3.5,-,N/A,,Overcast,170,2013-03-24 06:55:00
3:35 AM,42.8,33.8,70,29.75,10.0,SE,3.5,-,N/A,,Overcast,140,2013-03-24 07:35:00
3:55 AM,42.8,33.8,70,29.74,10.0,SSE,11.5,19.6,N/A,,Overcast,150,2013-03-24 07:55:00
4:15 AM,42.8,33.8,70,29.74,10.0,SSE,6.9,16.1,N/A,,Overcast,160,2013-03-24 08:15:00
4:35 AM,42.8,33.8,70,29.71,10.0,SSE,9.2,-,N/A,,Overcast,150,2013-03-24 08:35:00
4:55 AM,42.8,33.8,70,29.70,10.0,SSE,9.2,17.3,N/A,,Light Drizzle,160,2013-03-24 08:55:00
5:15 AM,42.8,35.6,76,29.72,10.0,South,8.1,-,N/A,Rain,Rain,180,2013-03-24 09:15:00
5:35 AM,42.8,35.6,76,29.73,10.0,SSW,5.8,-,N/A,Rain,Rain,200,2013-03-24 09:35:00
5:55 AM,41.0,37.4,87,29.72,5.0,SSE,4.6,-,0.02,Rain,Rain,160,2013-03-24 09:55:00
6:15 AM,41.0,37.4,87,29.70,7.0,SSE,3.5,-,0.02,Rain,Rain,160,2013-03-24 10:15:00
6:35 AM,41.0,41.0,100,29.69,7.0,SE,3.5,-,0.03,Rain,Light Rain,140,2013-03-24 10:35:00
6:55 AM,41.0,41.0,100,29.69,7.0,SSE,3.5,-,0.03,Rain,Light Rain,150,2013-03-24 10:55:00
7:15 AM,41.0,41.0,100,29.68,5.0,SSE,3.5,-,0.01,Rain,Light Rain,160,2013-03-24 11:15:00
7:35 AM,41.0,41.0,100,29.68,3.0,SSE,3.5,-,0.02,Rain,Rain,160,2013-03-24 11:35:00
7:55 AM,41.0,41.0,100,29.68,3.0,ESE,3.5,-,0.04,Rain,Rain,120,2013-03-24 11:55:00
8:15 AM,41.0,41.0,100,29.67,4.0,SE,4.6,-,0.01,Rain,Rain,130,2013-03-24 12:15:00
8:35 AM,41.0,41.0,100,29.66,5.0,SSE,6.9,-,0.03,Rain,Rain,160,2013-03-24 12:35:00
8:55 AM,41.0,41.0,100,29.65,5.0,SE,8.1,-,0.04,Rain,Rain,140,2013-03-24 12:55:00
9:15 AM,41.0,41.0,100,29.66,5.0,SSE,10.4,17.3,0.01,Rain,Light Rain,150,2013-03-24 13:15:00
9:35 AM,41.0,41.0,100,29.64,5.0,SSE,9.2,-,0.02,Rain,Rain,150,2013-03-24 13:35:00
9:55 AM,41.0,41.0,100,29.61,7.0,SE,10.4,18.4,0.04,Rain,Light Rain,140,2013-03-24 13:55:00
10:15 AM,41.0,41.0,100,29.59,10.0,SE,9.2,18.4,N/A,Rain,Light Rain,140,2013-03-24 14:15:00
10:35 AM,41.0,41.0,100,29.58,10.0,SSE,12.7,19.6,N/A,,Overcast,160,2013-03-24 14:35:00
10:55 AM,41.0,41.0,100,29.57,10.0,SSE,8.1,16.1,N/A,Rain,Rain,160,2013-03-24 14:55:00
11:15 AM,41.0,41.0,100,29.57,10.0,SSE,10.4,20.7,N/A,Rain,Light Rain,160,2013-03-24 15:15:00
11:35 AM,41.0,41.0,100,29.58,10.0,SSE,9.2,18.4,N/A,Rain,Light Rain,160,2013-03-24 15:35:00
11:55 AM,41.0,41.0,100,29.58,10.0,South,9.2,-,0.01,Rain,Light Rain,170,2013-03-24 15:55:00
12:15 PM,41.0,41.0,100,29.58,5.0,South,4.6,-,0.02,Rain,Rain,170,2013-03-24 16:15:00
12:35 PM,41.0,41.0,100,29.57,7.0,South,8.1,16.1,0.03,Rain,Rain,170,2013-03-24 16:35:00
12:55 PM,41.0,41.0,100,29.56,7.0,SSE,6.9,-,0.04,Rain,Rain,160,2013-03-24 16:55:00
1:15 PM,41.0,41.0,100,29.56,5.0,South,5.8,16.1,0.01,Rain,Light Rain,170,2013-03-24 17:15:00
1:35 PM,41.0,41.0,100,29.56,5.0,South,8.1,16.1,0.02,Rain,Light Rain,180,2013-03-24 17:35:00
1:55 PM,42.8,42.8,100,29.54,7.0,SSE,11.5,17.3,0.02,Rain,Light Rain,150,2013-03-24 17:55:00
2:15 PM,42.8,42.8,100,29.53,5.0,SSE,10.4,-,N/A,,Light Drizzle,160,2013-03-24 18:15:00
2:35 PM,42.8,42.8,100,29.52,3.0,South,8.1,17.3,N/A,,Overcast,170,2013-03-24 18:35:00
2:55 PM,42.8,42.8,100,29.50,7.0,South,9.2,-,N/A,,Overcast,170,2013-03-24 18:55:00
3:15 PM,42.8,42.8,100,29.50,4.0,SSE,8.1,16.1,N/A,,Overcast,160,2013-03-24 19:15:00
3:35 PM,42.8,42.8,100,29.49,4.0,SSE,8.1,-,N/A,,Overcast,150,2013-03-24 19:35:00
3:55 PM,42.8,42.8,100,29.46,7.0,SSE,9.2,-,N/A,,Overcast,150,2013-03-24 19:55:00
4:15 PM,42.8,42.8,100,29.45,10.0,South,5.8,-,N/A,,Overcast,170,2013-03-24 20:15:00
4:35 PM,44.6,44.6,100,29.44,10.0,Calm,Calm,-,N/A,,Overcast,0,2013-03-24 20:35:00
4:55 PM,44.6,44.6,100,29.43,10.0,SSE,6.9,-,N/A,,Overcast,150,2013-03-24 20:55:00
5:15 PM,42.8,42.8,100,29.42,10.0,South,9.2,16.1,N/A,,Overcast,170,2013-03-24 21:15:00
5:35 PM,42.8,42.8,100,29.40,10.0,South,5.8,-,N/A,,Overcast,170,2013-03-24 21:35:00
5:55 PM,44.6,44.6,100,29.41,10.0,SSE,4.6,-,N/A,,Overcast,150,2013-03-24 21:55:00
6:15 PM,44.6,44.6,100,29.41,10.0,SSE,4.6,-,N/A,,Overcast,160,2013-03-24 22:15:00
6:35 PM,44.6,42.8,93,29.40,10.0,South,8.1,-,N/A,Thunderstorm,Overcast,170,2013-03-24 22:35:00
6:55 PM,42.8,42.8,100,29.40,10.0,SSE,9.2,-,N/A,Thunderstorm,Drizzle,160,2013-03-24 22:55:00
7:15 PM,42.8,42.8,100,29.38,10.0,SSE,11.5,19.6,N/A,Rain,Light Rain,160,2013-03-24 23:15:00
7:35 PM,42.8,42.8,100,29.38,0.2,SSE,9.2,18.4,0.11,Rain-Thunderstorm,Light Thunderstorms and Rain,160,2013-03-24 23:35:00
8:15 PM,42.8,42.8,100,29.37,7.0,SSE,6.9,-,0.01,Rain,Rain,150,2013-03-25 00:15:00
8:35 PM,42.8,42.8,100,29.41,5.0,South,5.8,-,0.04,Rain,Heavy Rain,190,2013-03-25 00:35:00
8:55 PM,42.8,42.8,100,29.44,5.0,SW,5.8,-,0.09,Rain,Heavy Rain,220,2013-03-25 00:55:00
9:15 PM,42.8,42.8,100,29.46,5.0,West,15.0,21.9,0.04,Rain,Rain,260,2013-03-25 01:15:00
9:35 PM,41.0,41.0,100,29.47,5.0,West,12.7,18.4,0.08,Rain,Rain,270,2013-03-25 01:35:00
9:55 PM,39.2,39.2,100,29.47,7.0,West,12.7,19.6,0.09,Rain,Light Rain,270,2013-03-25 01:55:00
10:15 PM,39.2,39.2,100,29.47,10.0,West,4.6,-,N/A,Rain,Light Rain,260,2013-03-25 02:15:00
10:35 PM,39.2,39.2,100,29.46,10.0,Calm,Calm,-,N/A,,Overcast,0,2013-03-25 02:35:00
10:55 PM,39.2,39.2,100,29.47,10.0,South,4.6,-,N/A,,Overcast,180,2013-03-25 02:55:00
11:15 PM,39.2,39.2,100,29.47,10.0,South,5.8,-,N/A,,Overcast,170,2013-03-25 03:15:00
11:35 PM,39.2,37.4,93,29.46,10.0,South,3.5,-,N/A,,Overcast,180,2013-03-25 03:35:00
11:55 PM,39.2,37.4,93,29.45,10.0,South,3.5,-,N/A,,Overcast,180,2013-03-25 03:55:00